www.pogodaiklimat.ru

Погода и климат >> Архив погоды >> Россия >> Камчатский край >> Мыс Лопатка


ПОГОДА на Мысе Лопатка

  • Прогноз погоды на Мысе Лопатка
  • Монитор погоды на Мысе Лопатка
  • Климат города

АРХИВ ПОГОДЫ на Мысе Лопатка

Время (UTC), дата Ветер
(напр.,м/с)
 
Видим.   Явления Облачность Т
(С)
Тd
(С)
f
(%)
Тe
(С)
Тes
(С)
Комфортность P
(гПа)
Po
(гПа)
Тmin
(С)
Tmax
(С)
R
(мм)
R24
(мм)
S
(см)
06 15.05 В 15-22
{22}
20 км {морось} 10/10 300 м
[St]
+2.1 +1.5 96 -7 -7 1015.4 1009.1
09 15.05 В 16-21
{23}
4000 м дымка 10/10 200 м
[St]
+2.0 +1.8 99 -7 -7 1014.4 1008.1 +2.6 0.0
12 15.05 В 17-23
{24}
4000 м дымка 10/10 200 м
[St]
+2.1 +1.9 99 -7 -7 1013.3 1007.0
15 15.05 В 15-20
{24}
4000 м слабая морось 10/10 200 м
[St]
+2.4 +2.2 99 -7 -7 1011.3 1005.0
18 15.05 В 14-18
{22}
10 км {морось} 10/10 200 м
[St]
+2.3 +2.1 99 -6 -6 1010.2 1004.0
21 15.05 В 16-22
{22}
10 км слабый ливневой дождь 10/10 300 м
[Cb cap]
+2.4 +1.9 96 -7 -7 1009.6 1003.4 +2.0 0.4
00 16.05 В 17-23
{23}
10 км слабый ливневой дождь 10/10 300 м
[Cb cap]
+3.0 +2.5 97 -6 -6 1008.2 1002.0
03 16.05 СВ 16-22
{26}
20 км слабый ливневой дождь 10/10 300 м
[Cb cap]
+3.3 +1.9 91 -5 -5 1007.3 1001.1
06 16.05 СВ 9-14
{22}
20 км в посл. час ливневой дождь 10/10 600 м
[Sc]
+4.3 +2.3 87 -2 -2 1006.2 1000.0
09 16.05 СВ 7
{15}
10 км слабый ливневой дождь 10/10 300 м
[Cb cap]
+3.2 +2.1 92 -3 -3 1005.4 999.2 +4.5 0.8
12 16.05 СВ 6
{13}
10 км слабый ливневой дождь 10/10 300 м
[Cb cap]
+2.6 +1.6 93 -3 -3 1005.3 999.1
15 16.05 СВ 5
{10}
10 км слабый ливневой дождь 10/10 300 м
[Cb cap]
+2.7 +1.3 90 -3 -3 1004.8 998.6
18 16.05 СВ 5 20 км в посл. час ливневой дождь 10/10 600 м
[Sc]
+2.9 +1.7 92 -3 -3 1004.4 998.2
21 16.05 В 7-10
{10}
50 км 10/10 600 м
[Sc]
+3.7 +2.3 91 -2 -2 1003.7 997.5 +2.3 2
00 17.05 В 15-19
{21}
20 км 10/10 300 м
[St]
+3.3 +2.1 92 -5 -5 1002.0 995.8
03 17.05 В 15-21
{22}
20 км 9/9 300 м
[St]
+3.2 +2.4 94 -5 -5 999.4 993.3
06 17.05 В 15-19
{24}
4000 м слабая морось 10/10 200 м
[St]
+2.4 +2.1 98 -6 -6 998.5 992.4
09 17.05 В 16-21
{21}
4000 м слабый дождь {морось} 10/10 200 м
[Frnb Ns]
+2.2 +2.1 99 -7 -7 995.2 989.1 +3.9 0.8
12 17.05 В 16-24
{24}
4000 м слабый дождь {морось} 10/10 200 м
[Frnb]
+2.3 +2.2 99 -7 -7 992.7 986.6
15 17.05 В 15-20
{24}
2000 м сильный дождь 10/10 200 м
[Frnb Ns]
+1.2 +1.1 99 -8 -8 992.4 986.2
18 17.05 В 15-20
{20}
2000 м сильный снег {дождь} 10/10 200 м
[Frnb Ns]
+0.3 +0.3 100 -9 -9 990.9 984.7
21 17.05 СВ 14-17
{20}
4000 м снег 10/10 200 м
[Frnb Ns]
+0.6 +0.6 100 -9 -9 991.9 985.7 +0.2 17 1
00 18.05 СВ 8-12
{19}
10 км слабый дождь {снег} 10/10 300 м
[Frnb Ns]
+2.7 +1.7 93 -4 -4 993.1 987.0
03 18.05 С 6
{12}
20 км в посл. час дождь 10/10 600 м
[Sc]
+4.2 +2.3 87 -1 -1 994.1 988.0
06 18.05 С 5
{10}
50 км {дождь} 10/3 600 м
[Sc Ac As]
+4.5 +1.8 83 -0 0 996.1 990.0
09 18.05 С 8-10
{11}
50 км {дождь} 10/3 600 м
[Sc Ac As]
+3.4 +1.7 89 -3 -3 998.0 991.9 +5.4 4
12 18.05 С 7
{11}
20 км {дождь} 10/10 600 м
[Sc]
+2.8 +2.0 94 -4 -4 1000.2 994.1
15 18.05 С 8-10
{11}
20 км 10/10 600 м
[Sc]
+2.7 +1.8 94 -4 -4 1002.2 996.0
18 18.05 С 4
{11}
50 км в посл. час дождь 10/1 300 м
[St As op]
+2.6 +1.6 93 -2 -2 1004.6 998.4
21 18.05 СЗ 6 50 км 10/0
[As trans]
+3.2 +2.2 93 -3 -2 1007.1 1000.9 +2.4 0.4
00 19.05 СЗ 7 10 км слабый дождь 10/10 300 м
[Frnb]
+3.8 +2.7 93 -2 -2 1009.7 1003.5
03 19.05 ЮВ 3 50 км {дождь} 9/9 600 м
[Sc Ac As]
+4.5 +2.1 84 +1 +2 1012.5 1006.2
06 19.05 В 10-14
{15}
50 км {дождь} 9/0
[Ac As]
+3.8 +0.9 81 -3 -3 1014.0 1007.7
09 19.05 В 9-13
{15}
50 км 9/0
[Ac As]
+3.3 +0.5 82 -3 -3 1017.7 1011.4 +5.4 1
12 19.05 В 12-16
{17}
20 км ясно +2.7 +0.2 84 -5 -5 1018.7 1012.4
15 19.05 В 8-10
{16}
20 км 1/1 600 м
[Sc]
+2.5 -0.2 82 -4 -4 1019.5 1013.2
18 19.05 В 7
{11}
50 км 8/5 600 м
[Sc Ci fib]
+2.4 0.0 84 -4 -4 1020.7 1014.4
21 19.05 В 6 50 км 9/9 600 м
[]
+3.2 +0.7 84 -3 -2 1021.2 1014.9 +2.4
00 20.05 В 7
{10}
50 км 10/1 600 м
[Sc Ac trans Cs]
+3.4 +0.7 82 -3 -1 1021.0 1014.7
03 20.05 В 8-10
{10}
50 км 10/1 600 м
[Sc Ac As Cc]
+3.9 +1.5 84 -2 -1 1019.7 1013.4
06 20.05 В 7-10
{11}
50 км 10/1 600 м
[Sc Ac As]
+2.7 +1.0 89 -4 -3 1018.2 1011.9
09 20.05 В 10-13
{13}
20 км 10/3 600 м
[Sc Ac As]
+2.1 +0.7 90 -6 -6 1017.4 1011.1 +4.2
12 20.05 В 12-16
{18}
20 км 10/1 600 м
[Sc Ac As]
+2.1 +0.7 90 -6 -6 1015.5 1009.2
15 20.05 В 15-19
{19}
4000 м слабый дождь 10/10 200 м
[Frnb Ns]
+1.7 +1.0 95 -7 -7 1013.3 1006.9
18 20.05 В 17-23
{24}
2000 м дождь со снегом 10/10 200 м
[Frnb Ns]
+0.6 +0.3 98 -9 -9 1009.7 1003.4
21 20.05 В 19-26
{28}
2000 м дождь со снегом 10/10 200 м
[Frnb Ns]
+0.9 +0.7 99 -9 -9 1006.5 1000.2 +0.5 7 1
00 21.05 В 21-28
{29}
4000 м слабый ливневой дождь со снегом 9/9 200 м
[Cb cap]
+1.4 +1.3 99 -9 -9 1003.3 997.0
03 21.05 В 20-29
{29}
4000 м слабый ливневой дождь со снегом 10/10 200 м
[Cb cap]
+1.2 +1.0 99 -9 -9 999.9 993.7
06 21.05 В 17-25
{29}
4000 м слабый ливневой дождь со снегом 10/10 200 м
[Cb cap]
+1.1 +0.7 97 -9 -9 998.9 992.7
09 21.05 СВ 15-20
{26}
10 км слабый ливневой дождь 10/10 300 м
[Cb cap]
+2.1 +0.6 90 -7 -7 998.1 992.0 +2.2 4
12 21.05 СВ 6
{21}
20 км в посл. час ливневой дождь 10/10 600 м
[Sc]
+2.2 +0.2 87 -4 -4 997.1 991.0
15 21.05 СЗ 8-10
{11}
20 км 10/10 600 м
[Sc]
+2.2 +1.1 92 -5 -5 995.3 989.2
18 21.05 СЗ 9-12
{12}
50 км 9/0
[Ac As Ci sp]
+2.5 +1.5 93 -5 -5 995.0 988.9
21 21.05 СЗ 8-10
{16}
50 км 9/0
[Ac As]
+3.1 +2.5 96 -4 -3 995.2 989.1 +1.6 1
00 22.05 СЗ 12-14
{14}
10 км слабый дождь 10/10 300 м
[Frnb Ns]
+2.5 +2.2 98 -6 -6 995.6 989.5

 

Местоположение метеостанции Мыс Лопатка (Камчатский край, Россия): широта 50.87 долгота 156.60 высота над уровнем моря 50 м.

В архиве по умолчанию представлена погода на Мысе Лопатка за последнюю неделю. Архивные данные за месяц целиком и за предыдущие месяцы, начиная с января 2011 года, Вы можете получить, выбрав интересующий диапазон дат из раскрывающегося списка и нажав кнопку "Ввод!".


*Определитесь, кто Вы:
робот инопланетянин человек

Внимание! Время в таблицах - всемирное. Для получения местного времени необходимо прибавить поправку, которая на Мысе Лопатка равна 12 ч.

Смотрите также архив погоды в соседних городах и на ближайших метеорологических станциях:

Погода в Северо-Курильске (Сахалинская область, Россия) (41 км)
Погода в Озерной (Камчатский край, Россия) (69 км)
Погода в Водопадной (Камчатский край, Россия) (144 км)
Погода в Большерецке (Камчатский край, Россия) (219 км)
Погода в Начиках (Камчатский край, Россия) (261 км)
Погода в Петропавловск-Камчатском (Камчатский край, Россия) (261 км)
Погода в Петропавловском Маяке (Камчатский край, Россия) (266 км)
Погода в Сосновке (Камчатский край, Россия) (272 км)
Погода в Петропавловск-Камч. 2 (Камчатский край, Россия) (278 км)
Погода в Пущино (Камчатский край, Россия) (380 км)

Пояснения к столбцам:

Ветер - указаны скорость ветра в м/с - средняя за 10 мин, порывы в срок и между сроками (в фигурных скобках) и направление, откуда дует ветер: С - северный, СВ - северо-восточный, В - восточный, ЮВ - юго-восточный, Ю - южный, ЮЗ - юго-западный, З - западный, СЗ - северо-западный.
Видимость - горизонтальная дальность видимости в метрах или километрах. При видимости от 1 до 10 км при отсутствии осадков обычно наблюдается дымка, при ухудшении видимости до 1 км и менее - туман. В сухую погоду видимость может ухудшаться дымом, пылью или мглою.
Явления - указаны атмосферные явления, наблюдавшиеся в срок или в последний час перед сроком; фигурными скобками обозначены явления, наблюдавшиеся между сроками (за 1-3 часа до срока); квадратными скобками обозначены град или гололедные отложения с указанием их диаметра в мм.
Облачность - указаны через наклонную черту общая и нижняя облачность в баллах и высота нижней границы облаков в метрах; квадратными скобками обозначены формы облаков: Ci - перистые, Cs - перисто-слоистые, Cc - перисто-кучевые, Ac - высококучевые, As - высокослоистые, Sc - слоисто-кучевые, Ns - слоисто-дождевые, Cu - кучевые, Cb - кучево-дождевые. Подробнее классификацию облаков см. в Атласе облаков (PDF).
T - Температура воздуха - температура, измеренная на высоте 2 м над землей.
Td - Температура точки росы - температура, при понижении до которой содержащийся в воздухе водяной пар достигнет насыщения.
f - Относительная влажность воздуха - влажноcть воздуха, измеренная на высоте 2 м над землей.
Te - Эффективная температура - температура, которую ощущает одетый по сезону человек в тени. Характеристика душности погоды. При расчете учитывается влияние влажности воздуха и скорости ветра на теплоощущения человека.
Tes - Эффективная температура на солнце - температура, которую ощущает человек, с поправкой на солнечный нагрев. Характеристика знойности погоды. Зависит от высоты солнца над горизонтом, облачности и скорости ветра. Ночью, в пасмурную погоду, а также при ветре 12 м/с и более поправка равна нулю.
P - Атмосферное давление - приведенное к уровню моря атмосферное давление.
Po - Атмосферное давление - измеренное на уровне метеостанции атмосферное давление.
Tmin - Минимальная температура - минимум температуры воздуха на высоте 2 м над землей.
Tmax - Максимальная температура - максимум температуры воздуха на высоте 2 м над землей.
R - Количество осадков - Количество выпавших осадков за период времени, мм. При наведении курсора мыши на число - период времени, за который выпало указанное количество осадков.
R24 - Количество осадков - Количество выпавших осадков за 24 часа, мм.
S - Снежный покров - Высота снежного покрова, см. При наведении курсора мыши на число - состояние снежного покрова и степень покрытия местности в баллах.